QPF
0.02 0.02 0.04 0.05 0.05 0.04 0.05 0.06 0.09 0.06 0.05 0.05 0.05 0.04 0.04 0.07 0.09 0.10 0.11 0.09 0.08 0.08 0.09 0.10 0.11 0.11 0.10 0.07 0.06 0.07 0.08 0.10 0.10 0.08 0.08 0.08 0.06 0.06 0.06 0.05 0.05 0.05 0.08
0.02 0.04 0.04 0.05 0.05 0.05 0.07 0.08 0.07 0.07 0.06 0.05 0.07 0.06 0.05 0.07 0.09 0.09 0.10 0.09 0.08 0.07 0.06 0.08 0.08 0.09 0.10 0.07 0.06 0.07 0.07 0.06 0.07 0.08 0.08 0.08 0.06 0.06 0.06 0.06 0.06 0.07 0.06
0.01 0.03 0.04 0.05 0.04 0.05 0.06 0.06 0.07 0.06 0.05 0.05 0.07 0.08 0.06 0.07 0.09 0.10 0.09 0.08 0.08 0.07 0.06 0.08 0.07 0.07 0.07 0.08 0.07 0.06 0.07 0.06 0.07 0.05 0.05 0.08 0.08 0.07 0.08 0.07 0.09 0.09 0.08
0.01 0.02 0.04 0.04 0.05 0.05 0.04 0.05 0.07 0.06 0.06 0.07 0.08 0.07 0.07 0.08 0.08 0.07 0.08 0.08 0.09 0.10 0.07 0.08 0.07 0.06 0.06 0.07 0.07 0.06 0.07 0.08 0.07 0.03 0.02 0.05 0.06 0.06 0.07 0.08 0.10 0.12 0.09
0.01 0.02 0.02 0.04 0.06 0.05 0.06 0.07 0.06 0.05 0.06 0.07 0.09 0.08 0.07 0.07 0.09 0.08 0.08 0.08 0.10 0.10 0.08 0.07 0.06 0.05 0.06 0.06 0.05 0.05 0.07 0.07 0.07 0.02 0.03 0.04 0.07 0.07 0.06 0.06 0.09 0.09 0.08
0.01 0.01 0.02 0.04 0.04 0.06 0.11 0.11 0.07 0.07 0.06 0.06 0.06 0.07 0.08 0.08 0.08 0.07 0.07 0.07 0.10 0.11 0.10 0.07 0.05 0.04 0.04 0.06 0.06 0.05 0.06 0.05 0.03 0.03 0.04 0.04 0.06 0.06 0.05 0.07 0.08 0.06 0.05
0.00 0.01 0.02 0.03 0.03 0.07 0.14 0.11 0.06 0.08 0.07 0.06 0.06 0.05 0.07 0.09 0.09 0.08 0.07 0.06 0.09 0.13 0.10 0.08 0.06 0.04 0.04 0.05 0.06 0.06 0.05 0.04 0.02 0.03 0.05 0.07 0.08 0.07 0.06 0.06 0.06 0.05 0.04
0.01 0.01 0.01 0.02 0.02 0.05 0.11 0.12 0.11 0.12 0.08 0.07 0.06 0.05 0.07 0.08 0.09 0.09 0.07 0.05 0.07 0.11 0.10 0.07 0.07 0.05 0.05 0.05 0.07 0.08 0.06 0.04 0.03 0.03 0.04 0.07 0.09 0.06 0.07 0.05 0.05 0.06 0.05
0.01 0.01 0.01 0.01 0.02 0.04 0.08 0.10 0.09 0.09 0.07 0.06 0.06 0.07 0.07 0.08 0.08 0.08 0.07 0.05 0.06 0.08 0.10 0.05 0.06 0.06 0.05 0.06 0.07 0.07 0.08 0.06 0.03 0.03 0.04 0.09 0.09 0.07 0.07 0.05 0.05 0.06 0.06
0.01 0.01 0.01 0.00 0.01 0.02 0.04 0.05 0.04 0.05 0.05 0.05 0.05 0.08 0.08 0.07 0.06 0.06 0.05 0.06 0.06 0.08 0.09 0.06 0.06 0.06 0.06 0.06 0.06 0.07 0.10 0.10 0.03 0.04 0.07 0.08 0.08 0.08 0.08 0.06 0.05 0.06 0.05
0.00 0.00 0.00 0.00 0.00 0.01 0.01 0.01 0.02 0.02 0.03 0.03 0.02 0.04 0.04 0.04 0.03 0.03 0.04 0.05 0.05 0.08 0.10 0.08 0.07 0.06 0.07 0.06 0.04 0.04 0.03 0.04 0.03 0.03 0.06 0.09 0.09 0.08 0.07 0.07 0.06 0.06 0.05
0.01 0.00 0.00 0.00 0.00 0.00 0.01 0.01 0.01 0.01 0.01 0.01 0.01 0.01 0.02 0.02 0.02 0.02 0.03 0.03 0.03 0.07 0.12 0.11 0.09 0.07 0.06 0.07 0.04 0.03 0.03 0.03 0.03 0.03 0.05 0.06 0.05 0.06 0.06 0.06 0.06 0.05 0.04
0.00 0.00 0.00 0.00 0.00 0.00 0.00 0.00 0.00 0.00 0.01 0.01 0.00 0.01 0.02 0.01 0.01 0.01 0.02 0.02 0.03 0.09 0.19 0.18 0.13 0.09 0.08 0.08 0.06 0.04 0.02 0.02 0.03 0.03 0.04 0.06 0.06 0.06 0.09 0.09 0.06 0.05 0.06
0.00 0.00 0.00 0.00 0.00 0.00 0.00 0.01 0.01 0.00 0.01 0.01 0.00 0.01 0.01 0.01 0.01 0.01 0.01 0.01 0.02 0.08 0.16 0.21 0.17 0.11 0.10 0.09 0.06 0.03 0.01 0.01 0.02 0.02 0.04 0.06 0.07 0.08 0.10 0.12 0.08 0.07 0.08
0.00 0.00 0.00 0.00 0.00 0.00 0.00 0.00 0.00 0.00 0.00 0.01 0.01 0.01 0.01 0.01 0.01 0.01 0.01 0.01 0.01 0.03 0.05 0.07 0.07 0.07 0.10 0.08 0.05 0.03 0.02 0.02 0.01 0.01 0.02 0.04 0.06 0.07 0.06 0.06 0.05 0.06 0.06
0.00 0.00 0.00 0.00 0.00 0.00 0.00 0.00 0.00 0.00 0.01 0.02 0.03 0.01 0.01 0.01 0.01 0.01 0.01 0.01 0.02 0.01 0.02 0.02 0.01 0.02 0.06 0.07 0.04 0.03 0.03 0.03 0.02 0.02 0.02 0.02 0.03 0.06 0.07 0.06 0.05 0.06 0.05
0.00 0.00 0.00 0.00 0.00 0.00 0.00 0.00 0.00 0.00 0.01 0.01 0.02 0.01 0.01 0.01 0.02 0.02 0.02 0.02 0.02 0.01 0.01 0.01 0.01 0.01 0.04 0.05 0.04 0.03 0.03 0.03 0.03 0.03 0.02 0.02 0.02 0.04 0.06 0.05 0.04 0.04 0.03
0.01 0.00 0.00 0.00 0.00 0.00 0.00 0.00 0.00 0.00 0.01 0.01 0.01 0.01 0.01 0.01 0.01 0.02 0.02 0.02 0.01 0.01 0.01 0.01 0.01 0.02 0.03 0.04 0.04 0.03 0.03 0.02 0.03 0.03 0.02 0.02 0.02 0.02 0.03 0.03 0.03 0.03 0.03
0.00 0.00 0.00 0.00 0.00 0.00 0.00 0.01 0.01 0.01 0.02 0.01 0.01 0.01 0.01 0.01 0.01 0.01 0.02 0.02 0.01 0.01 0.02 0.03 0.03 0.02 0.02 0.02 0.03 0.03 0.03 0.03 0.02 0.02 0.02 0.02 0.01 0.02 0.02 0.01 0.01 0.02 0.03
0.00 0.00 0.00 0.00 0.00 0.00 0.00 0.00 0.01 0.02 0.02 0.02 0.02 0.01 0.01 0.01 0.01 0.01 0.01 0.01 0.02 0.02 0.02 0.03 0.05 0.06 0.04 0.03 0.02 0.03 0.04 0.03 0.03 0.02 0.03 0.02 0.02 0.02 0.02 0.01 0.01 0.02 0.06
0.00 0.00 0.01 0.01 0.01 0.00 0.00 0.00 0.02 0.03 0.02 0.02 0.01 0.01 0.01 0.01 0.01 0.03 0.02 0.02 0.02 0.02 0.02 0.01 0.03 0.07 0.07 0.05 0.04 0.04 0.05 0.04 0.04 0.04 0.04 0.03 0.02 0.02 0.02 0.02 0.02 0.01 0.03
0.00 0.00 0.00 0.01 0.01 0.00 0.00 0.00 0.02 0.02 0.01 0.01 0.01 0.01 0.01 0.01 0.01 0.02 0.03 0.03 0.02 0.02 0.01 0.01 0.02 0.03 0.03 0.03 0.05 0.06 0.05 0.05 0.04 0.03 0.03 0.02 0.01 0.01 0.01 0.01 0.01 0.02 0.03
0.00 0.00 0.00 0.01 0.01 0.00 0.00 0.01 0.01 0.01 0.01 0.01 0.01 0.01 0.01 0.01 0.01 0.02 0.02 0.02 0.02 0.02 0.02 0.02 0.01 0.01 0.03 0.02 0.02 0.05 0.06 0.06 0.05 0.04 0.03 0.02 0.01 0.01 0.01 0.00 0.01 0.01 0.01
0.00 0.00 0.01 0.01 0.01 0.01 0.00 0.00 0.02 0.02 0.02 0.02 0.01 0.01 0.01 0.01 0.01 0.02 0.02 0.01 0.01 0.02 0.03 0.02 0.01 0.02 0.02 0.03 0.01 0.02 0.03 0.04 0.04 0.03 0.03 0.02 0.01 0.01 0.01 0.00 0.01 0.01 0.01
0.01 0.01 0.00 0.01 0.01 0.01 0.01 0.01 0.01 0.02 0.02 0.01 0.01 0.01 0.01 0.01 0.02 0.02 0.02 0.01 0.01 0.02 0.03 0.03 0.03 0.03 0.02 0.03 0.03 0.02 0.02 0.02 0.02 0.03 0.02 0.01 0.01 0.00 0.00 0.00 0.01 0.01 0.01
0.01 0.01 0.01 0.01 0.01 0.01 0.01 0.01 0.01 0.02 0.02 0.02 0.02 0.02 0.01 0.01 0.02 0.03 0.03 0.02 0.02 0.02 0.03 0.02 0.02 0.02 0.03 0.03 0.03 0.02 0.03 0.03 0.03 0.02 0.01 0.01 0.01 0.00 0.00 0.00 0.00 0.00 0.00
MSLP
1012.97 1012.33 1011.77 1011.33 1011.03 1010.83 1010.71 1010.62 1010.52 1010.38 1010.21 1010.01 1009.83 1009.69 1009.62 1009.63 1009.72 1009.86 1010.03 1010.22 1010.40 1010.59 1010.78 1011.00 1011.25 1011.51 1011.79 1012.05 1012.28 1012.46 1012.59 1012.67 1012.73 1012.78 1012.85 1012.93 1013.05 1013.17 1013.28 1013.38 1013.43 1013.45 1013.44
1013.15 1012.53 1011.99 1011.57 1011.27 1011.07 1010.95 1010.84 1010.72 1010.57 1010.39 1010.20 1010.04 1009.93 1009.90 1009.95 1010.07 1010.24 1010.43 1010.63 1010.82 1011.01 1011.21 1011.44 1011.69 1011.95 1012.22 1012.47 1012.68 1012.83 1012.92 1012.98 1013.01 1013.05 1013.11 1013.20 1013.31 1013.43 1013.53 1013.60 1013.64 1013.63 1013.58
1013.31 1012.72 1012.20 1011.79 1011.50 1011.30 1011.16 1011.03 1010.89 1010.73 1010.54 1010.37 1010.23 1010.16 1010.18 1010.27 1010.43 1010.62 1010.82 1011.02 1011.21 1011.41 1011.61 1011.84 1012.10 1012.37 1012.64 1012.88 1013.07 1013.20 1013.27 1013.30 1013.32 1013.35 1013.40 1013.49 1013.59 1013.70 1013.78 1013.84 1013.85 1013.82 1013.76
1013.41 1012.86 1012.38 1011.99 1011.70 1011.50 1011.34 1011.19 1011.03 1010.86 1010.68 1010.53 1010.43 1010.41 1010.47 1010.60 1010.79 1011.00 1011.22 1011.42 1011.61 1011.80 1012.01 1012.25 1012.51 1012.79 1013.07 1013.30 1013.48 1013.60 1013.65 1013.67 1013.67 1013.69 1013.73 1013.80 1013.89 1013.98 1014.05 1014.09 1014.08 1014.04 1013.97
1013.46 1012.96 1012.52 1012.16 1011.89 1011.69 1011.52 1011.36 1011.18 1011.00 1010.83 1010.71 1010.65 1010.67 1010.78 1010.96 1011.18 1011.41 1011.62 1011.82 1012.01 1012.20 1012.41 1012.66 1012.94 1013.23 1013.51 1013.75 1013.93 1014.03 1014.07 1014.07 1014.05 1014.05 1014.07 1014.13 1014.20 1014.27 1014.32 1014.34 1014.33 1014.28 1014.21
1013.49 1013.05 1012.66 1012.35 1012.11 1011.92 1011.74 1011.57 1011.38 1011.20 1011.04 1010.94 1010.92 1010.98 1011.14 1011.35 1011.59 1011.84 1012.05 1012.25 1012.43 1012.62 1012.84 1013.10 1013.39 1013.69 1013.98 1014.23 1014.40 1014.49 1014.51 1014.49 1014.45 1014.42 1014.42 1014.45 1014.50 1014.55 1014.59 1014.59 1014.57 1014.52 1014.46
1013.56 1013.19 1012.86 1012.60 1012.40 1012.22 1012.05 1011.87 1011.68 1011.49 1011.34 1011.25 1011.26 1011.36 1011.55 1011.79 1012.05 1012.30 1012.52 1012.71 1012.89 1013.08 1013.30 1013.56 1013.86 1014.18 1014.47 1014.71 1014.86 1014.93 1014.93 1014.89 1014.82 1014.77 1014.74 1014.75 1014.78 1014.82 1014.84 1014.83 1014.80 1014.75 1014.69
1013.70 1013.40 1013.14 1012.94 1012.78 1012.63 1012.47 1012.29 1012.09 1011.90 1011.74 1011.67 1011.69 1011.82 1012.03 1012.28 1012.55 1012.80 1013.02 1013.20 1013.37 1013.56 1013.79 1014.05 1014.36 1014.67 1014.95 1015.17 1015.31 1015.35 1015.33 1015.25 1015.16 1015.09 1015.05 1015.04 1015.05 1015.07 1015.08 1015.06 1015.01 1014.95 1014.89
1013.93 1013.69 1013.51 1013.37 1013.26 1013.15 1013.00 1012.82 1012.61 1012.42 1012.26 1012.19 1012.22 1012.35 1012.57 1012.82 1013.09 1013.34 1013.55 1013.73 1013.89 1014.08 1014.30 1014.56 1014.86 1015.15 1015.41 1015.61 1015.72 1015.73 1015.67 1015.57 1015.46 1015.38 1015.33 1015.32 1015.33 1015.34 1015.34 1015.30 1015.24 1015.15 1015.06
1014.21 1014.04 1013.92 1013.85 1013.79 1013.71 1013.59 1013.42 1013.21 1013.01 1012.85 1012.78 1012.81 1012.94 1013.15 1013.40 1013.66 1013.90 1014.10 1014.27 1014.44 1014.61 1014.83 1015.08 1015.36 1015.63 1015.86 1016.02 1016.09 1016.07 1015.98 1015.86 1015.75 1015.66 1015.62 1015.62 1015.64 1015.65 1015.64 1015.59 1015.50 1015.38 1015.25
1014.51 1014.39 1014.34 1014.33 1014.32 1014.28 1014.18 1014.02 1013.82 1013.62 1013.47 1013.39 1013.42 1013.55 1013.75 1013.99 1014.25 1014.47 1014.66 1014.83 1014.99 1015.16 1015.36 1015.60 1015.85 1016.09 1016.28 1016.40 1016.43 1016.38 1016.27 1016.15 1016.03 1015.97 1015.95 1015.97 1016.01 1016.03 1016.01 1015.94 1015.82 1015.65 1015.46
1014.77 1014.71 1014.71 1014.75 1014.78 1014.78 1014.70 1014.56 1014.38 1014.20 1014.05 1013.98 1014.01 1014.14 1014.33 1014.57 1014.81 1015.03 1015.22 1015.38 1015.53 1015.70 1015.89 1016.10 1016.33 1016.53 1016.68 1016.75 1016.74 1016.67 1016.55 1016.43 1016.33 1016.29 1016.31 1016.36 1016.42 1016.46 1016.45 1016.36 1016.20 1015.98 1015.74
1014.97 1014.95 1015.00 1015.08 1015.15 1015.17 1015.13 1015.01 1014.86 1014.69 1014.57 1014.52 1014.56 1014.68 1014.88 1015.11 1015.34 1015.55 1015.73 1015.89 1016.05 1016.21 1016.38 1016.58 1016.77 1016.93 1017.04 1017.07 1017.04 1016.94 1016.82 1016.71 1016.64 1016.63 1016.68 1016.77 1016.86 1016.91 1016.90 1016.80 1016.61 1016.35 1016.06
1015.11 1015.14 1015.23 1015.34 1015.43 1015.48 1015.45 1015.37 1015.24 1015.10 1015.01 1014.98 1015.03 1015.16 1015.36 1015.58 1015.81 1016.02 1016.20 1016.35 1016.50 1016.66 1016.83 1017.00 1017.16 1017.28 1017.35 1017.35 1017.29 1017.18 1017.05 1016.96 1016.91 1016.93 1017.02 1017.13 1017.25 1017.31 1017.30 1017.19 1016.98 1016.70 1016.38
1015.24 1015.31 1015.42 1015.55 1015.66 1015.72 1015.71 1015.65 1015.55 1015.45 1015.38 1015.37 1015.44 1015.58 1015.77 1015.99 1016.21 1016.40 1016.58 1016.74 1016.89 1017.04 1017.19 1017.34 1017.48 1017.57 1017.60 1017.57 1017.49 1017.36 1017.24 1017.15 1017.12 1017.16 1017.26 1017.39 1017.51 1017.59 1017.57 1017.46 1017.25 1016.96 1016.64
1015.40 1015.49 1015.62 1015.76 1015.88 1015.95 1015.96 1015.91 1015.84 1015.77 1015.73 1015.74 1015.82 1015.95 1016.13 1016.33 1016.53 1016.71 1016.88 1017.03 1017.18 1017.32 1017.46 1017.60 1017.71 1017.77 1017.77 1017.71 1017.61 1017.47 1017.34 1017.25 1017.21 1017.26 1017.35 1017.48 1017.59 1017.66 1017.65 1017.54 1017.34 1017.07 1016.77
1015.59 1015.72 1015.87 1016.02 1016.13 1016.21 1016.22 1016.20 1016.15 1016.10 1016.08 1016.10 1016.18 1016.30 1016.45 1016.62 1016.80 1016.96 1017.10 1017.25 1017.38 1017.52 1017.65 1017.77 1017.85 1017.89 1017.86 1017.78 1017.65 1017.50 1017.36 1017.25 1017.20 1017.22 1017.29 1017.39 1017.47 1017.52 1017.50 1017.40 1017.23 1017.00 1016.75
1015.82 1015.98 1016.15 1016.30 1016.42 1016.50 1016.53 1016.53 1016.50 1016.47 1016.46 1016.49 1016.55 1016.64 1016.76 1016.89 1017.02 1017.15 1017.27 1017.40 1017.52 1017.65 1017.77 1017.87 1017.93 1017.95 1017.90 1017.80 1017.65 1017.47 1017.31 1017.17 1017.09 1017.07 1017.09 1017.14 1017.18 1017.20 1017.16 1017.07 1016.93 1016.76 1016.58
1016.03 1016.22 1016.40 1016.57 1016.70 1016.79 1016.85 1016.87 1016.87 1016.86 1016.86 1016.88 1016.92 1016.98 1017.05 1017.13 1017.22 1017.31 1017.40 1017.50 1017.61 1017.73 1017.84 1017.93 1017.98 1017.97 1017.91 1017.79 1017.62 1017.43 1017.24 1017.07 1016.94 1016.86 1016.82 1016.81 1016.79 1016.76 1016.70 1016.62 1016.52 1016.40 1016.30
1016.15 1016.36 1016.57 1016.75 1016.90 1017.02 1017.11 1017.17 1017.20 1017.22 1017.24 1017.25 1017.27 1017.30 1017.33 1017.36 1017.39 1017.44 1017.51 1017.59 1017.68 1017.79 1017.89 1017.97 1018.01 1018.00 1017.93 1017.79 1017.61 1017.40 1017.19 1016.99 1016.81 1016.67 1016.56 1016.47 1016.39 1016.31 1016.22 1016.14 1016.06 1016.01 1015.97
1016.11 1016.34 1016.57 1016.77 1016.96 1017.12 1017.25 1017.36 1017.44 1017.50 1017.53 1017.56 1017.56 1017.56 1017.54 1017.53 1017.53 1017.54 1017.58 1017.64 1017.73 1017.83 1017.93 1018.01 1018.05 1018.03 1017.96 1017.83 1017.64 1017.43 1017.20 1016.97 1016.75 1016.55 1016.37 1016.21 1016.06 1015.91 1015.79 1015.70 1015.64 1015.63 1015.65
1015.90 1016.13 1016.37 1016.60 1016.83 1017.04 1017.22 1017.39 1017.52 1017.62 1017.69 1017.73 1017.73 1017.70 1017.67 1017.62 1017.59 1017.58 1017.60 1017.65 1017.73 1017.83 1017.93 1018.02 1018.06 1018.06 1017.99 1017.87 1017.70 1017.50 1017.27 1017.02 1016.78 1016.53 1016.29 1016.05 1015.83 1015.62 1015.46 1015.34 1015.28 1015.30 1015.37
1015.55 1015.77 1016.01 1016.26 1016.52 1016.77 1017.01 1017.23 1017.42 1017.57 1017.67 1017.72 1017.73 1017.70 1017.64 1017.58 1017.53 1017.51 1017.52 1017.57 1017.65 1017.76 1017.86 1017.96 1018.01 1018.03 1017.99 1017.90 1017.75 1017.57 1017.36 1017.12 1016.86 1016.58 1016.29 1015.99 1015.70 1015.43 1015.21 1015.06 1014.99 1015.01 1015.10
1015.15 1015.35 1015.58 1015.83 1016.11 1016.39 1016.66 1016.92 1017.15 1017.33 1017.45 1017.52 1017.53 1017.50 1017.44 1017.37 1017.32 1017.29 1017.30 1017.35 1017.43 1017.54 1017.66 1017.76 1017.84 1017.88 1017.88 1017.82 1017.73 1017.58 1017.41 1017.19 1016.94 1016.64 1016.32 1015.97 1015.62 1015.29 1015.01 1014.81 1014.70 1014.71 1014.80
1014.86 1015.02 1015.21 1015.45 1015.71 1015.99 1016.27 1016.53 1016.76 1016.95 1017.08 1017.15 1017.16 1017.13 1017.06 1016.99 1016.93 1016.89 1016.90 1016.95 1017.03 1017.15 1017.27 1017.39 1017.48 1017.55 1017.59 1017.58 1017.54 1017.46 1017.34 1017.17 1016.94 1016.65 1016.31 1015.93 1015.52 1015.13 1014.79 1014.53 1014.37 1014.35 1014.42
1014.80 1014.89 1015.04 1015.23 1015.45 1015.69 1015.93 1016.16 1016.36 1016.52 1016.62 1016.67 1016.66 1016.61 1016.53 1016.45 1016.37 1016.33 1016.33 1016.37 1016.45 1016.56 1016.68 1016.80 1016.92 1017.01 1017.09 1017.14 1017.16 1017.15 1017.09 1016.98 1016.80 1016.54 1016.20 1015.80 1015.36 1014.91 1014.51 1014.18 1013.97 1013.89 1013.94
Thickness
5761 5762 5759 5760 5761 5762 5763 5764 5765 5766 5767 5768 5769 5770 5770 5770 5770 5771 5771 5771 5772 5772 5772 5772 5772 5773 5773 5774 5774 5774 5775 5774 5774 5774 5774 5774 5774 5774 5774 5774 5775 5775 5772
5761 5760 5757 5758 5759 5760 5761 5762 5763 5764 5765 5766 5766 5767 5768 5768 5768 5768 5768 5769 5769 5769 5770 5770 5770 5770 5771 5771 5772 5772 5772 5772 5772 5772 5772 5773 5772 5772 5772 5772 5773 5773 5771
5759 5758 5756 5755 5756 5757 5758 5759 5760 5761 5762 5763 5764 5764 5764 5765 5765 5765 5765 5766 5766 5767 5767 5767 5767 5768 5768 5769 5769 5769 5769 5769 5769 5770 5771 5773 5771 5770 5770 5770 5770 5769 5769
5756 5756 5755 5752 5753 5754 5755 5756 5757 5758 5759 5760 5760 5761 5761 5762 5762 5762 5762 5763 5763 5764 5764 5764 5765 5765 5765 5766 5766 5766 5766 5766 5767 5768 5771 5771 5770 5767 5767 5767 5767 5767 5766
5753 5752 5751 5749 5750 5751 5752 5753 5754 5755 5755 5756 5757 5757 5758 5758 5759 5759 5759 5760 5760 5760 5760 5761 5761 5762 5762 5762 5763 5762 5763 5763 5764 5766 5767 5767 5766 5763 5764 5764 5764 5764 5764
5750 5749 5747 5746 5747 5748 5749 5751 5751 5751 5752 5753 5753 5754 5754 5755 5755 5756 5756 5756 5756 5756 5757 5757 5758 5758 5758 5758 5759 5759 5759 5760 5762 5763 5763 5763 5763 5760 5760 5760 5761 5761 5761
5748 5747 5745 5742 5743 5744 5746 5748 5749 5748 5748 5749 5750 5750 5750 5751 5751 5752 5752 5753 5753 5753 5753 5753 5754 5754 5754 5754 5755 5755 5755 5757 5760 5760 5760 5759 5758 5757 5757 5757 5758 5758 5758
5745 5744 5743 5739 5740 5740 5742 5744 5745 5744 5744 5745 5745 5746 5746 5747 5747 5748 5748 5749 5749 5749 5749 5749 5750 5750 5750 5750 5751 5751 5752 5754 5756 5756 5755 5755 5752 5753 5753 5753 5754 5754 5754
5742 5742 5742 5741 5740 5738 5738 5739 5739 5740 5740 5740 5741 5741 5742 5742 5743 5744 5744 5745 5745 5745 5745 5745 5746 5746 5746 5746 5747 5747 5748 5749 5752 5752 5752 5749 5748 5748 5749 5749 5750 5750 5750
5740 5740 5740 5739 5740 5740 5738 5735 5735 5735 5736 5736 5736 5736 5737 5738 5739 5740 5740 5740 5740 5741 5741 5741 5742 5741 5742 5742 5743 5743 5744 5746 5747 5747 5746 5744 5743 5744 5744 5745 5746 5746 5746
5737 5738 5738 5738 5737 5737 5736 5733 5733 5732 5732 5733 5733 5733 5735 5737 5737 5737 5736 5735 5736 5736 5736 5737 5737 5737 5738 5738 5738 5739 5741 5743 5742 5742 5740 5738 5738 5739 5739 5740 5740 5741 5741
5734 5736 5737 5737 5736 5735 5733 5732 5732 5732 5731 5732 5732 5732 5733 5733 5733 5733 5730 5731 5731 5732 5732 5732 5733 5734 5736 5737 5736 5736 5738 5739 5738 5737 5735 5733 5733 5734 5734 5735 5735 5735 5736
5734 5733 5735 5735 5734 5733 5731 5730 5729 5728 5727 5728 5729 5729 5730 5730 5730 5730 5730 5729 5729 5729 5730 5729 5731 5732 5733 5732 5733 5733 5733 5734 5733 5732 5730 5728 5729 5729 5730 5730 5730 5730 5731
5733 5732 5732 5733 5732 5731 5730 5728 5727 5726 5726 5726 5726 5726 5727 5727 5727 5726 5726 5726 5726 5726 5725 5727 5727 5728 5728 5729 5729 5729 5729 5728 5727 5726 5723 5723 5724 5725 5725 5725 5725 5725 5725
5731 5730 5731 5730 5731 5729 5727 5725 5724 5723 5724 5724 5722 5723 5723 5723 5724 5723 5723 5721 5722 5722 5722 5722 5723 5723 5723 5723 5723 5723 5723 5723 5722 5721 5719 5717 5718 5719 5719 5720 5720 5720 5720
5731 5730 5729 5728 5727 5727 5725 5724 5722 5721 5719 5720 5719 5719 5720 5719 5720 5719 5719 5718 5718 5717 5718 5718 5718 5717 5717 5717 5717 5716 5716 5717 5717 5716 5715 5714 5712 5713 5713 5714 5714 5715 5715
5731 5730 5728 5726 5725 5725 5723 5721 5719 5718 5717 5716 5715 5716 5716 5715 5716 5716 5716 5715 5714 5713 5714 5714 5714 5713 5712 5712 5711 5711 5710 5710 5711 5711 5710 5710 5710 5707 5707 5707 5708 5709 5709
5731 5729 5726 5723 5723 5721 5720 5718 5717 5716 5714 5713 5712 5712 5712 5712 5712 5711 5711 5710 5709 5709 5709 5708 5709 5708 5707 5707 5707 5707 5706 5705 5706 5706 5706 5706 5705 5705 5703 5701 5702 5702 5703
5730 5728 5725 5723 5721 5719 5717 5715 5714 5713 5711 5710 5709 5708 5708 5708 5708 5708 5707 5706 5706 5705 5705 5705 5704 5704 5703 5701 5701 5701 5701 5701 5701 5702 5703 5702 5701 5700 5699 5697 5696 5697 5697
5729 5728 5725 5721 5719 5716 5714 5713 5711 5709 5709 5707 5706 5705 5705 5705 5705 5704 5703 5703 5703 5702 5701 5701 5699 5698 5698 5698 5698 5697 5697 5697 5697 5697 5698 5697 5697 5696 5696 5695 5694 5693 5692
5726 5725 5723 5720 5717 5714 5711 5709 5707 5706 5706 5705 5704 5703 5701 5701 5701 5701 5700 5700 5699 5698 5698 5698 5696 5695 5694 5695 5694 5692 5692 5693 5693 5692 5692 5692 5692 5691 5691 5691 5691 5690 5689
5724 5723 5722 5720 5717 5714 5711 5710 5707 5705 5705 5704 5702 5701 5699 5699 5699 5698 5698 5697 5696 5694 5694 5694 5692 5691 5691 5691 5691 5689 5687 5686 5686 5688 5688 5687 5688 5687 5687 5687 5687 5686 5685
5721 5721 5720 5719 5716 5713 5710 5707 5704 5702 5701 5701 5699 5699 5697 5696 5696 5695 5695 5694 5693 5693 5692 5690 5689 5687 5686 5688 5689 5687 5684 5682 5682 5684 5684 5684 5683 5683 5683 5683 5682 5682 5681
5720 5720 5719 5718 5716 5713 5709 5706 5703 5700 5699 5700 5699 5697 5696 5694 5693 5692 5692 5691 5691 5691 5689 5689 5688 5686 5684 5683 5684 5684 5685 5683 5680 5678 5679 5681 5680 5679 5679 5679 5678 5677 5677
5719 5717 5716 5715 5713 5710 5708 5704 5701 5701 5700 5699 5697 5696 5695 5693 5691 5690 5689 5689 5689 5688 5687 5686 5685 5684 5683 5682 5681 5681 5680 5679 5681 5677 5674 5675 5676 5676 5676 5675 5674 5673 5672
5715 5713 5712 5711 5709 5707 5705 5703 5700 5699 5697 5695 5693 5692 5691 5690 5689 5688 5686 5686 5685 5685 5684 5683 5682 5681 5680 5680 5679 5679 5678 5677 5677 5676 5674 5672 5671 5672 5672 5671 5670 5669 5668